Regional Weather Roundup
Issued by NWS

Home | Current Version | Previous Version | Graphics & Text | Print | Product List | Glossary On
Versions: 1 2 3 4 5 6 7 8 9 10 11 12 13 14 15 16 17 18 19 20 21 22 23 24 25 26 27 28 29 30 31 32 33 34 35 36 37 38 39 40 41 42 43 44 45 46 47 48 49 50
000
ASUS43 KBIS 191759
RWRND

NORTH DAKOTA REGIONAL WEATHER ROUNDUP
NATIONAL WEATHER SERVICE BISMARCK ND
100 PM CDT SAT APR 19 2014

NOTE: "FAIR" INDICATES FEW OR NO CLOUDS BELOW 12,000 FEET WITH NO
SIGNIFICANT WEATHER AND/OR OBSTRUCTIONS TO VISIBILITY.


NDZ001>003-009>011-017-191900-
NORTHWEST NORTH DAKOTA

CITY           SKY/WX    TMP DP  RH WIND       PRES   REMARKS
WILLISTON      PTSUNNY   51  35  54 NW17G25   29.91R
6HR MIN TEMP:  37; 6HR MAX TEMP:  52;

MINOT          CLOUDY    48  37  65 W20       29.85R
$$

NDZ018>021-031>035-040>046-191900-
SOUTHWEST NORTH DAKOTA

CITY           SKY/WX    TMP DP  RH WIND       PRES   REMARKS
BISMARCK       SUNNY     62  29  28 W17G29    29.92S
6HR MIN TEMP:  38; 6HR MAX TEMP:  62;

GARRISON         N/A     49  36  61 W21G29    29.90R
6HR MIN TEMP:  34; 6HR MAX TEMP:  49;

HETTINGER ARPT SUNNY     59  28  30 W22G31    29.96F
$$

NDZ004>008-012>016-024-026-027-054-191900-
NORTHEAST NORTH DAKOTA

CITY           SKY/WX    TMP DP  RH WIND       PRES   REMARKS
GRAND FORKS    MOSUNNY   61  35  37 W24G32    29.81S
DEVILS LAKE    CLOUDY    54  37  54 W26G35    29.83R
$$

NDZ022-023-025-028>030-036>039-047>053-191900-
SOUTHEAST NORTH DAKOTA

CITY           SKY/WX    TMP DP  RH WIND       PRES   REMARKS
FARGO          MOSUNNY   64  31  28 SW17      29.88R
6HR MIN TEMP:  48; 6HR MAX TEMP:  64;

$$




USA.gov is the U.S. government's official web portal to all federal, state and local government web resources and services.